Year,Month,Day,Hour,Minute,Value (Times are PST for temperature in C)
2008,07,24,00,00,12.10
2008,07,24,00,01,12.10
2008,07,24,00,02,12.10
2008,07,24,00,03,12.00
2008,07,24,00,04,12.00
2008,07,24,00,05,12.00
2008,07,24,00,06,12.00
2008,07,24,00,07,12.00
2008,07,24,00,08,12.00
2008,07,24,00,09,12.00
2008,07,24,00,10,12.00
2008,07,24,00,11,11.90
2008,07,24,00,12,11.90
2008,07,24,00,13,11.90
2008,07,24,00,14,11.90
2008,07,24,00,15,11.90
2008,07,24,00,16,11.90
2008,07,24,00,17,11.90
2008,07,24,00,18,11.80
2008,07,24,00,19,11.80
2008,07,24,00,20,11.80
2008,07,24,00,21,11.80
2008,07,24,00,22,11.80
2008,07,24,00,23,11.80
2008,07,24,00,24,11.80
2008,07,24,00,25,11.80
2008,07,24,00,26,11.80
2008,07,24,00,27,11.80
2008,07,24,00,28,11.80
2008,07,24,00,29,11.80
2008,07,24,00,30,11.70
2008,07,24,00,31,11.70
2008,07,24,00,32,11.70
2008,07,24,00,33,11.70
2008,07,24,00,34,11.70
2008,07,24,00,35,11.70
2008,07,24,00,36,11.70
2008,07,24,00,37,11.70
2008,07,24,00,38,11.70
2008,07,24,00,39,11.60
2008,07,24,00,40,11.60
2008,07,24,00,41,11.60
2008,07,24,00,42,11.60
2008,07,24,00,43,11.60
2008,07,24,00,44,11.60
2008,07,24,00,45,11.60
2008,07,24,00,46,11.60
2008,07,24,00,47,11.60
2008,07,24,00,48,11.60
2008,07,24,00,49,11.60
2008,07,24,00,50,11.60
2008,07,24,00,51,11.60
2008,07,24,00,52,11.60
2008,07,24,00,53,11.60
2008,07,24,00,54,11.60
2008,07,24,00,55,11.40
2008,07,24,00,56,11.40
2008,07,24,00,57,11.40
2008,07,24,00,58,11.40
2008,07,24,00,59,11.40
2008,07,24,01,00,11.40
2008,07,24,01,01,11.40
2008,07,24,01,02,11.40
2008,07,24,01,03,11.40
2008,07,24,01,04,11.40
2008,07,24,01,05,11.40
2008,07,24,01,06,11.40
2008,07,24,01,07,11.30
2008,07,24,01,08,11.30
2008,07,24,01,09,11.30
2008,07,24,01,10,11.30
2008,07,24,01,11,11.30
2008,07,24,01,12,11.30
2008,07,24,01,13,11.30
2008,07,24,01,14,11.20
2008,07,24,01,15,11.20
2008,07,24,01,16,11.20
2008,07,24,01,17,11.20
2008,07,24,01,18,11.20
2008,07,24,01,19,11.20
2008,07,24,01,20,11.20
2008,07,24,01,21,11.20
2008,07,24,01,22,11.20
2008,07,24,01,23,11.10
2008,07,24,01,24,11.10
2008,07,24,01,25,11.10
2008,07,24,01,26,11.10
2008,07,24,01,27,11.10
2008,07,24,01,28,11.10
2008,07,24,01,29,11.10
2008,07,24,01,30,11.10
2008,07,24,01,31,11.10
2008,07,24,01,32,11.10
2008,07,24,01,33,11.10
2008,07,24,01,34,11.00
2008,07,24,01,35,10.90
2008,07,24,01,36,10.90
2008,07,24,01,37,10.90
2008,07,24,01,38,10.90
2008,07,24,01,39,10.90
2008,07,24,01,40,10.90
2008,07,24,01,41,10.90
2008,07,24,01,42,10.90
2008,07,24,01,43,10.90
2008,07,24,01,44,10.90
2008,07,24,01,45,10.90
2008,07,24,01,46,10.90
2008,07,24,01,47,10.90
2008,07,24,01,48,10.90
2008,07,24,01,49,10.90
2008,07,24,01,50,10.90
2008,07,24,01,51,10.80
2008,07,24,01,52,10.80
2008,07,24,01,53,10.80
2008,07,24,01,54,10.80
2008,07,24,01,55,10.80
2008,07,24,01,56,10.80
2008,07,24,01,57,10.80
2008,07,24,01,58,10.70
2008,07,24,01,59,10.70
2008,07,24,02,00,10.70
2008,07,24,02,01,10.70
2008,07,24,02,02,10.70
2008,07,24,02,03,10.70
2008,07,24,02,04,10.70
2008,07,24,02,05,10.70
2008,07,24,02,06,10.60
2008,07,24,02,07,10.60
2008,07,24,02,08,10.60
2008,07,24,02,09,10.60
2008,07,24,02,10,10.60
2008,07,24,02,11,10.60
2008,07,24,02,12,10.60
2008,07,24,02,13,10.60
2008,07,24,02,14,10.60
2008,07,24,02,15,10.60
2008,07,24,02,16,10.60
2008,07,24,02,17,10.40
2008,07,24,02,18,10.40
2008,07,24,02,19,10.40
2008,07,24,02,20,10.40
2008,07,24,02,21,10.40
2008,07,24,02,22,10.40
2008,07,24,02,23,10.40
2008,07,24,02,24,10.40
2008,07,24,02,25,10.40
2008,07,24,02,26,10.40
2008,07,24,02,27,10.40
2008,07,24,02,28,10.40
2008,07,24,02,29,10.40
2008,07,24,02,30,10.40
2008,07,24,02,31,10.40
2008,07,24,02,32,10.40
2008,07,24,02,33,10.40
2008,07,24,02,34,10.40
2008,07,24,02,35,10.30
2008,07,24,02,36,10.30
2008,07,24,02,37,10.30
2008,07,24,02,38,10.30
2008,07,24,02,39,10.30
2008,07,24,02,40,10.30
2008,07,24,02,41,10.30
2008,07,24,02,42,10.30
2008,07,24,02,43,10.30
2008,07,24,02,44,10.30
2008,07,24,02,45,10.30
2008,07,24,02,46,10.30
2008,07,24,02,47,10.30
2008,07,24,02,48,10.30
2008,07,24,02,49,10.30
2008,07,24,02,50,10.30
2008,07,24,02,51,10.20
2008,07,24,02,52,10.20
2008,07,24,02,53,10.20
2008,07,24,02,54,10.20
2008,07,24,02,55,10.20
2008,07,24,02,56,10.20
2008,07,24,02,57,10.20
2008,07,24,02,58,10.20
2008,07,24,02,59,10.20
2008,07,24,03,00,10.10
2008,07,24,03,01,10.10
2008,07,24,03,02,10.10
2008,07,24,03,03,10.10
2008,07,24,03,04,10.10
2008,07,24,03,05,10.10
2008,07,24,03,06,10.10
2008,07,24,03,07,10.10
2008,07,24,03,08,10.10
2008,07,24,03,09,10.10
2008,07,24,03,10,10.10
2008,07,24,03,11,10.10
2008,07,24,03,12,10.10
2008,07,24,03,13,10.10
2008,07,24,03,14,10.10
2008,07,24,03,15,10.10
2008,07,24,03,16,10.10
2008,07,24,03,17,10.10
2008,07,24,03,18,10.10
2008,07,24,03,19,10.10
2008,07,24,03,20,10.00
2008,07,24,03,21,9.90
2008,07,24,03,22,9.90
2008,07,24,03,23,9.90
2008,07,24,03,24,9.90
2008,07,24,03,25,9.90
2008,07,24,03,26,9.90
2008,07,24,03,27,9.90
2008,07,24,03,28,9.90
2008,07,24,03,29,9.90
2008,07,24,03,30,9.90
2008,07,24,03,31,9.90
2008,07,24,03,32,9.90
2008,07,24,03,33,9.90
2008,07,24,03,34,9.90
2008,07,24,03,35,9.90
2008,07,24,03,36,9.90
2008,07,24,03,37,9.90
2008,07,24,03,38,9.90
2008,07,24,03,39,9.90
2008,07,24,03,40,9.90
2008,07,24,03,41,9.90
2008,07,24,03,42,9.90
2008,07,24,03,43,9.80
2008,07,24,03,44,9.80
2008,07,24,03,45,9.80
2008,07,24,03,46,9.80
2008,07,24,03,47,9.80
2008,07,24,03,48,9.80
2008,07,24,03,49,9.80
2008,07,24,03,50,9.70
2008,07,24,03,51,9.70
2008,07,24,03,52,9.70
2008,07,24,03,53,9.70
2008,07,24,03,54,9.70
2008,07,24,03,55,9.70
2008,07,24,03,56,9.70
2008,07,24,03,57,9.70
2008,07,24,03,58,9.70
2008,07,24,03,59,9.70
2008,07,24,04,00,9.70
2008,07,24,04,01,9.70
2008,07,24,04,02,9.70
2008,07,24,04,03,9.70
2008,07,24,04,04,9.70
2008,07,24,04,05,9.70
2008,07,24,04,06,9.70
2008,07,24,04,07,9.70
2008,07,24,04,08,9.70
2008,07,24,04,09,9.70
2008,07,24,04,10,9.70
2008,07,24,04,11,9.70
2008,07,24,04,12,9.70
2008,07,24,04,13,9.70
2008,07,24,04,14,9.70
2008,07,24,04,15,9.70
2008,07,24,04,16,9.70
2008,07,24,04,17,9.70
2008,07,24,04,18,9.70
2008,07,24,04,19,9.70
2008,07,24,04,20,9.70
2008,07,24,04,21,9.70
2008,07,24,04,22,9.70
2008,07,24,04,23,9.70
2008,07,24,04,24,9.70
2008,07,24,04,25,9.70
2008,07,24,04,26,9.60
2008,07,24,04,27,9.60
2008,07,24,04,28,9.60
2008,07,24,04,29,9.60
2008,07,24,04,30,9.60
2008,07,24,04,31,9.50
2008,07,24,04,32,9.50
2008,07,24,04,33,9.50
2008,07,24,04,34,9.50
2008,07,24,04,35,9.50
2008,07,24,04,36,9.50
2008,07,24,04,37,9.50
2008,07,24,04,38,9.50
2008,07,24,04,39,9.50
2008,07,24,04,40,9.50
2008,07,24,04,41,9.40
2008,07,24,04,42,9.40
2008,07,24,04,43,9.40
2008,07,24,04,44,9.40
2008,07,24,04,45,9.40
2008,07,24,04,46,9.40
2008,07,24,04,47,9.40
2008,07,24,04,48,9.40
2008,07,24,04,49,9.40
2008,07,24,04,50,9.40
2008,07,24,04,51,9.40
2008,07,24,04,52,9.30
2008,07,24,04,53,9.30
2008,07,24,04,54,9.30
2008,07,24,04,55,9.30
2008,07,24,04,56,9.30
2008,07,24,04,57,9.30
2008,07,24,04,58,9.30
2008,07,24,04,59,9.30
2008,07,24,05,00,9.30
2008,07,24,05,01,9.30
2008,07,24,05,02,9.30
2008,07,24,05,03,9.30
2008,07,24,05,04,9.30
2008,07,24,05,05,9.30
2008,07,24,05,06,9.30
2008,07,24,05,07,9.30
2008,07,24,05,08,9.30
2008,07,24,05,09,9.30
2008,07,24,05,10,9.30
2008,07,24,05,11,9.30
2008,07,24,05,12,9.20
2008,07,24,05,13,9.20
2008,07,24,05,14,9.20
2008,07,24,05,15,9.20
2008,07,24,05,16,9.20
2008,07,24,05,17,9.20
2008,07,24,05,18,9.20
2008,07,24,05,19,9.20
2008,07,24,05,20,9.20
2008,07,24,05,21,9.20
2008,07,24,05,22,9.20
2008,07,24,05,23,9.20
2008,07,24,05,24,9.20
2008,07,24,05,25,9.20
2008,07,24,05,26,9.20
2008,07,24,05,27,9.20
2008,07,24,05,28,9.20
2008,07,24,05,29,9.20
2008,07,24,05,30,9.20
2008,07,24,05,31,9.20
2008,07,24,05,32,9.20
2008,07,24,05,33,9.20
2008,07,24,05,34,9.20
2008,07,24,05,35,9.20
2008,07,24,05,36,9.20
2008,07,24,05,37,9.20
2008,07,24,05,38,9.20
2008,07,24,05,39,9.20
2008,07,24,05,40,9.20
2008,07,24,05,41,9.20
2008,07,24,05,42,9.20
2008,07,24,05,43,9.20
2008,07,24,05,44,9.20
2008,07,24,05,45,9.20
2008,07,24,05,46,9.20
2008,07,24,05,47,9.20
2008,07,24,05,48,9.20
2008,07,24,05,49,9.20
2008,07,24,05,50,9.20
2008,07,24,05,51,9.20
2008,07,24,05,52,9.20
2008,07,24,05,53,9.10
2008,07,24,05,54,9.10
2008,07,24,05,55,9.10
2008,07,24,05,56,9.10
2008,07,24,05,57,9.00
2008,07,24,05,58,9.00
2008,07,24,05,59,9.00
2008,07,24,06,00,9.00
2008,07,24,06,01,9.00
2008,07,24,06,02,9.00
2008,07,24,06,03,9.00
2008,07,24,06,04,9.00
2008,07,24,06,05,9.00
2008,07,24,06,06,9.00
2008,07,24,06,07,9.00
2008,07,24,06,08,9.10
2008,07,24,06,09,9.10
2008,07,24,06,10,9.10
2008,07,24,06,11,9.10
2008,07,24,06,12,9.20
2008,07,24,06,13,9.20
2008,07,24,06,14,9.20
2008,07,24,06,15,9.20
2008,07,24,06,16,9.20
2008,07,24,06,17,9.20
2008,07,24,06,18,9.20
2008,07,24,06,19,9.20
2008,07,24,06,20,9.30
2008,07,24,06,21,9.30
2008,07,24,06,22,9.30
2008,07,24,06,23,9.40
2008,07,24,06,24,9.40
2008,07,24,06,25,9.40
2008,07,24,06,26,9.50
2008,07,24,06,27,9.50
2008,07,24,06,28,9.60
2008,07,24,06,29,9.70
2008,07,24,06,30,9.70
2008,07,24,06,31,9.70
2008,07,24,06,32,9.70
2008,07,24,06,33,9.80
2008,07,24,06,34,9.90
2008,07,24,06,35,9.90
2008,07,24,06,36,10.00
2008,07,24,06,37,10.10
2008,07,24,06,38,10.10
2008,07,24,06,39,10.10
2008,07,24,06,40,10.10
2008,07,24,06,41,10.20
2008,07,24,06,42,10.20
2008,07,24,06,43,10.30
2008,07,24,06,44,10.40
2008,07,24,06,45,10.40
2008,07,24,06,46,10.40
2008,07,24,06,47,10.40
2008,07,24,06,48,10.40
2008,07,24,06,49,10.40
2008,07,24,06,50,10.50
2008,07,24,06,51,10.60
2008,07,24,06,52,10.60
2008,07,24,06,53,10.60
2008,07,24,06,54,10.60
2008,07,24,06,55,10.70
2008,07,24,06,56,10.80
2008,07,24,06,57,10.90
2008,07,24,06,58,10.90
2008,07,24,06,59,11.00
2008,07,24,07,00,11.10
2008,07,24,07,01,11.10
2008,07,24,07,02,11.10
2008,07,24,07,03,11.20
2008,07,24,07,04,11.20
2008,07,24,07,05,11.30
2008,07,24,07,06,11.30
2008,07,24,07,07,11.30
2008,07,24,07,08,11.30
2008,07,24,07,09,11.30
2008,07,24,07,10,11.30
2008,07,24,07,11,11.20
2008,07,24,07,12,11.20
2008,07,24,07,13,11.20
2008,07,24,07,14,11.10
2008,07,24,07,15,11.10
2008,07,24,07,16,11.10
2008,07,24,07,17,11.10
2008,07,24,07,18,11.10
2008,07,24,07,19,11.10
2008,07,24,07,20,11.10
2008,07,24,07,21,11.10
2008,07,24,07,22,11.20
2008,07,24,07,23,11.20
2008,07,24,07,24,11.30
2008,07,24,07,25,11.40
2008,07,24,07,26,11.50
2008,07,24,07,27,11.60
2008,07,24,07,28,11.70
2008,07,24,07,29,11.80
2008,07,24,07,30,11.90
2008,07,24,07,31,12.00
2008,07,24,07,32,12.00
2008,07,24,07,33,12.10
2008,07,24,07,34,12.10
2008,07,24,07,35,12.20
2008,07,24,07,36,12.20
2008,07,24,07,37,12.30
2008,07,24,07,38,12.30
2008,07,24,07,39,12.30
2008,07,24,07,40,12.30
2008,07,24,07,41,12.30
2008,07,24,07,42,12.30
2008,07,24,07,43,12.30
2008,07,24,07,44,12.30
2008,07,24,07,45,12.30
2008,07,24,07,46,12.30
2008,07,24,07,47,12.30
2008,07,24,07,48,12.30
2008,07,24,07,49,12.30
2008,07,24,07,50,12.30
2008,07,24,07,51,12.30
2008,07,24,07,52,12.30
2008,07,24,07,53,12.30
2008,07,24,07,54,12.30
2008,07,24,07,55,12.30
2008,07,24,07,56,12.30
2008,07,24,07,57,12.30
2008,07,24,07,58,12.20
2008,07,24,07,59,12.20
2008,07,24,08,00,12.20
2008,07,24,08,01,12.20
2008,07,24,08,02,12.30
2008,07,24,08,03,12.30
2008,07,24,08,04,12.20
2008,07,24,08,05,12.20
2008,07,24,08,06,12.20
2008,07,24,08,07,12.30
2008,07,24,08,08,12.30
2008,07,24,08,09,12.30
2008,07,24,08,10,12.30
2008,07,24,08,11,12.30
2008,07,24,08,12,12.30
2008,07,24,08,13,12.30
2008,07,24,08,14,12.20
2008,07,24,08,15,12.30
2008,07,24,08,16,12.30
2008,07,24,08,17,12.30
2008,07,24,08,18,12.30
2008,07,24,08,19,12.30
2008,07,24,08,20,12.30
2008,07,24,08,21,12.30
2008,07,24,08,22,12.30
2008,07,24,08,23,12.30
2008,07,24,08,24,12.30
2008,07,24,08,25,12.30
2008,07,24,08,26,12.40
2008,07,24,08,27,12.50
2008,07,24,08,28,12.50
2008,07,24,08,29,12.50
2008,07,24,08,30,12.50
2008,07,24,08,31,12.50
2008,07,24,08,32,12.50
2008,07,24,08,33,12.50
2008,07,24,08,34,12.60
2008,07,24,08,35,12.60
2008,07,24,08,36,12.60
2008,07,24,08,37,12.70
2008,07,24,08,38,12.70
2008,07,24,08,39,12.70
2008,07,24,08,40,12.70
2008,07,24,08,41,12.70
2008,07,24,08,42,12.70
2008,07,24,08,43,12.70
2008,07,24,08,44,12.70
2008,07,24,08,45,12.70
2008,07,24,08,46,12.80
2008,07,24,08,47,12.80
2008,07,24,08,48,12.80
2008,07,24,08,49,12.80
2008,07,24,08,50,12.80
2008,07,24,08,51,12.80
2008,07,24,08,52,12.80
2008,07,24,08,53,12.80
2008,07,24,08,54,12.90
2008,07,24,08,55,12.80
2008,07,24,08,56,12.80
2008,07,24,08,57,12.80
2008,07,24,08,58,12.80
2008,07,24,08,59,12.80
2008,07,24,09,00,12.80
2008,07,24,09,01,12.80
2008,07,24,09,02,12.80
2008,07,24,09,03,12.80
2008,07,24,09,04,12.80
2008,07,24,09,05,12.80
2008,07,24,09,06,12.80
2008,07,24,09,07,12.80
2008,07,24,09,08,12.80
2008,07,24,09,09,12.90
2008,07,24,09,10,12.90
2008,07,24,09,11,13.00
2008,07,24,09,12,13.00
2008,07,24,09,13,13.00
2008,07,24,09,14,13.10
2008,07,24,09,15,13.10
2008,07,24,09,16,13.10
2008,07,24,09,17,13.10
2008,07,24,09,18,13.10
2008,07,24,09,19,13.10
2008,07,24,09,20,13.20
2008,07,24,09,21,13.20
2008,07,24,09,22,13.30
2008,07,24,09,23,13.40
2008,07,24,09,24,13.50
2008,07,24,09,25,13.60
2008,07,24,09,26,13.60
2008,07,24,09,27,13.70
2008,07,24,09,28,13.70
2008,07,24,09,29,13.80
2008,07,24,09,30,13.90
2008,07,24,09,31,13.90
2008,07,24,09,32,14.00
2008,07,24,09,33,14.10
2008,07,24,09,34,14.20
2008,07,24,09,35,14.20
2008,07,24,09,36,14.20
2008,07,24,09,37,14.20
2008,07,24,09,38,14.30
2008,07,24,09,39,14.30
2008,07,24,09,40,14.30
2008,07,24,09,41,14.30
2008,07,24,09,42,14.30
2008,07,24,09,43,14.30
2008,07,24,09,44,14.30
2008,07,24,09,45,14.30
2008,07,24,09,46,14.30
2008,07,24,09,47,14.30
2008,07,24,09,48,14.30
2008,07,24,09,49,14.40
2008,07,24,09,50,14.40
2008,07,24,09,51,14.50
2008,07,24,09,52,14.50
2008,07,24,09,53,14.50
2008,07,24,09,54,14.60
2008,07,24,09,55,14.60
2008,07,24,09,56,14.60
2008,07,24,09,57,14.70
2008,07,24,09,58,14.70
2008,07,24,09,59,14.70
2008,07,24,10,00,14.70
2008,07,24,10,01,14.80
2008,07,24,10,02,14.80
2008,07,24,10,03,14.80
2008,07,24,10,04,14.80
2008,07,24,10,05,14.80
2008,07,24,10,06,14.80
2008,07,24,10,07,14.80
2008,07,24,10,08,14.80
2008,07,24,10,09,14.80
2008,07,24,10,10,14.80
2008,07,24,10,11,14.80
2008,07,24,10,12,14.80
2008,07,24,10,13,14.90
2008,07,24,10,14,15.00
2008,07,24,10,15,15.00
2008,07,24,10,16,15.00
2008,07,24,10,17,14.80
2008,07,24,10,18,14.80
2008,07,24,10,19,14.80
2008,07,24,10,20,14.80
2008,07,24,10,21,14.80
2008,07,24,10,22,14.80
2008,07,24,10,23,14.80
2008,07,24,10,24,14.90
2008,07,24,10,25,15.00
2008,07,24,10,26,15.00
2008,07,24,10,27,15.10
2008,07,24,10,28,15.20
2008,07,24,10,29,15.30
2008,07,24,10,30,15.30
2008,07,24,10,31,15.30
2008,07,24,10,32,15.30
2008,07,24,10,33,15.20
2008,07,24,10,34,15.10
2008,07,24,10,35,15.10
2008,07,24,10,36,15.10
2008,07,24,10,37,15.10
2008,07,24,10,38,15.10
2008,07,24,10,39,15.20
2008,07,24,10,40,15.30
2008,07,24,10,41,15.30
2008,07,24,10,42,15.40
2008,07,24,10,43,15.50
2008,07,24,10,44,15.60
2008,07,24,10,45,15.70
2008,07,24,10,46,15.80
2008,07,24,10,47,15.80
2008,07,24,10,48,15.80
2008,07,24,10,49,15.80
2008,07,24,10,50,15.90
2008,07,24,10,51,15.80
2008,07,24,10,52,15.90
2008,07,24,10,53,16.00
2008,07,24,10,54,16.10
2008,07,24,10,55,16.10
2008,07,24,10,56,16.10
2008,07,24,10,57,16.10
2008,07,24,10,58,16.10
2008,07,24,10,59,16.10
2008,07,24,11,00,15.90
2008,07,24,11,01,16.00
2008,07,24,11,02,16.10
2008,07,24,11,03,16.10
2008,07,24,11,04,16.10
2008,07,24,11,05,16.10
2008,07,24,11,06,16.10
2008,07,24,11,07,16.10
2008,07,24,11,08,16.10
2008,07,24,11,09,16.20
2008,07,24,11,10,16.20
2008,07,24,11,11,16.10
2008,07,24,11,12,16.10
2008,07,24,11,13,16.10
2008,07,24,11,14,16.10
2008,07,24,11,15,16.10
2008,07,24,11,16,16.10
2008,07,24,11,17,16.10
2008,07,24,11,18,16.20
2008,07,24,11,19,16.20
2008,07,24,11,20,16.40
2008,07,24,11,21,16.40
2008,07,24,11,22,16.60
2008,07,24,11,23,16.70
2008,07,24,11,24,16.70
2008,07,24,11,25,16.70
2008,07,24,11,26,16.80
2008,07,24,11,27,16.90
2008,07,24,11,28,17.00
2008,07,24,11,29,17.10
2008,07,24,11,30,17.20
2008,07,24,11,31,17.30
2008,07,24,11,32,17.30
2008,07,24,11,33,17.30
2008,07,24,11,34,17.40
2008,07,24,11,35,17.50
2008,07,24,11,36,17.50
2008,07,24,11,37,17.60
2008,07,24,11,38,17.70
2008,07,24,11,39,17.80
2008,07,24,11,40,17.80
2008,07,24,11,41,17.80
2008,07,24,11,42,17.80
2008,07,24,11,43,17.80
2008,07,24,11,44,17.90
2008,07,24,11,45,17.90
2008,07,24,11,46,18.00
2008,07,24,11,47,18.10
2008,07,24,11,48,18.20
2008,07,24,11,49,18.00
2008,07,24,11,50,17.90
2008,07,24,11,51,17.90
2008,07,24,11,52,17.70
2008,07,24,11,53,17.60
2008,07,24,11,54,17.50
2008,07,24,11,55,17.50
2008,07,24,11,56,17.40
2008,07,24,11,57,17.30
2008,07,24,11,58,17.40
2008,07,24,11,59,17.40
2008,07,24,12,00,17.40
2008,07,24,12,01,17.50
2008,07,24,12,02,17.60
2008,07,24,12,03,17.70
2008,07,24,12,04,17.80
2008,07,24,12,05,17.90
2008,07,24,12,06,17.90
2008,07,24,12,07,18.00
2008,07,24,12,08,18.10
2008,07,24,12,09,18.20
2008,07,24,12,10,18.20
2008,07,24,12,11,18.20
2008,07,24,12,12,18.10
2008,07,24,12,13,18.00
2008,07,24,12,14,17.90
2008,07,24,12,15,17.80
2008,07,24,12,16,17.70
2008,07,24,12,17,17.60
2008,07,24,12,18,17.50
2008,07,24,12,19,17.50
2008,07,24,12,20,17.60
2008,07,24,12,21,17.60
2008,07,24,12,22,17.60
2008,07,24,12,23,17.70
2008,07,24,12,24,17.70
2008,07,24,12,25,17.70
2008,07,24,12,26,17.70
2008,07,24,12,27,17.80
2008,07,24,12,28,17.90
2008,07,24,12,29,18.00
2008,07,24,12,30,18.20
2008,07,24,12,31,18.20
2008,07,24,12,32,18.20
2008,07,24,12,33,18.20
2008,07,24,12,34,18.20
2008,07,24,12,35,18.20
2008,07,24,12,36,18.30
2008,07,24,12,37,18.30
2008,07,24,12,38,18.20
2008,07,24,12,39,18.20
2008,07,24,12,40,18.10
2008,07,24,12,41,18.10
2008,07,24,12,42,18.20
2008,07,24,12,43,18.30
2008,07,24,12,44,18.40
2008,07,24,12,45,18.50
2008,07,24,12,46,18.60
2008,07,24,12,47,18.70
2008,07,24,12,48,18.70
2008,07,24,12,49,18.70
2008,07,24,12,50,18.70
2008,07,24,12,51,18.60
2008,07,24,12,52,18.60
2008,07,24,12,53,18.70
2008,07,24,12,54,18.90
2008,07,24,12,55,19.10
2008,07,24,12,56,19.20
2008,07,24,12,57,19.30
2008,07,24,12,58,19.40
2008,07,24,12,59,19.40
2008,07,24,13,00,19.40
2008,07,24,13,01,19.40
2008,07,24,13,02,19.40
2008,07,24,13,03,19.30
2008,07,24,13,04,19.10
2008,07,24,13,05,19.10
2008,07,24,13,06,18.90
2008,07,24,13,07,18.90
2008,07,24,13,08,18.90
2008,07,24,13,09,19.00
2008,07,24,13,10,19.10
2008,07,24,13,11,19.10
2008,07,24,13,12,19.10
2008,07,24,13,13,19.10
2008,07,24,13,14,19.00
2008,07,24,13,15,19.10
2008,07,24,13,16,19.10
2008,07,24,13,17,19.20
2008,07,24,13,18,19.30
2008,07,24,13,19,19.40
2008,07,24,13,20,19.50
2008,07,24,13,21,19.60
2008,07,24,13,22,19.70
2008,07,24,13,23,19.80
2008,07,24,13,24,19.90
2008,07,24,13,25,20.10
2008,07,24,13,26,20.20
2008,07,24,13,27,20.20
2008,07,24,13,28,20.20
2008,07,24,13,29,20.20
2008,07,24,13,30,20.30
2008,07,24,13,31,20.30
2008,07,24,13,32,20.20
2008,07,24,13,33,20.20
2008,07,24,13,34,20.20
2008,07,24,13,35,20.10
2008,07,24,13,36,20.10
2008,07,24,13,37,20.00
2008,07,24,13,38,20.10
2008,07,24,13,39,20.10
2008,07,24,13,40,20.20
2008,07,24,13,41,20.10
2008,07,24,13,42,20.20
2008,07,24,13,43,20.20
2008,07,24,13,44,20.20
2008,07,24,13,45,20.20
2008,07,24,13,46,20.10
2008,07,24,13,47,19.90
2008,07,24,13,48,19.90
2008,07,24,13,49,19.90
2008,07,24,13,50,20.00
2008,07,24,13,51,19.90
2008,07,24,13,52,19.90
2008,07,24,13,53,19.90
2008,07,24,13,54,19.90
2008,07,24,13,55,20.10
2008,07,24,13,56,20.10
2008,07,24,13,57,20.10
2008,07,24,13,58,20.20
2008,07,24,13,59,20.20
2008,07,24,14,00,20.30
2008,07,24,14,01,20.40
2008,07,24,14,02,20.40
2008,07,24,14,03,20.40
2008,07,24,14,04,20.40
2008,07,24,14,05,20.30
2008,07,24,14,06,20.20
2008,07,24,14,07,20.20
2008,07,24,14,08,20.10
2008,07,24,14,09,20.10
2008,07,24,14,10,20.00
2008,07,24,14,11,19.90
2008,07,24,14,12,19.90
2008,07,24,14,13,19.90
2008,07,24,14,14,19.90
2008,07,24,14,15,19.90
2008,07,24,14,16,19.90
2008,07,24,14,17,19.90
2008,07,24,14,18,19.90
2008,07,24,14,19,19.90
2008,07,24,14,20,20.10
2008,07,24,14,21,20.10
2008,07,24,14,22,20.10
2008,07,24,14,23,20.10
2008,07,24,14,24,20.20
2008,07,24,14,25,20.20
2008,07,24,14,26,20.20
2008,07,24,14,27,20.30
2008,07,24,14,28,20.40
2008,07,24,14,29,20.50
2008,07,24,14,30,20.70
2008,07,24,14,31,20.80
2008,07,24,14,32,20.70
2008,07,24,14,33,20.60
2008,07,24,14,34,20.50
2008,07,24,14,35,20.50
2008,07,24,14,36,20.40
2008,07,24,14,37,20.40
2008,07,24,14,38,20.30
2008,07,24,14,39,20.30
2008,07,24,14,40,20.40
2008,07,24,14,41,20.40
2008,07,24,14,42,20.40
2008,07,24,14,43,20.40
2008,07,24,14,44,20.40
2008,07,24,14,45,20.30
2008,07,24,14,46,20.20
2008,07,24,14,47,20.20
2008,07,24,14,48,20.20
2008,07,24,14,49,20.20
2008,07,24,14,50,20.10
2008,07,24,14,51,20.20
2008,07,24,14,52,20.20
2008,07,24,14,53,20.20
2008,07,24,14,54,20.30
2008,07,24,14,55,20.50
2008,07,24,14,56,20.60
2008,07,24,14,57,20.70
2008,07,24,14,58,20.80
2008,07,24,14,59,20.90
2008,07,24,15,00,21.00
2008,07,24,15,01,21.00
2008,07,24,15,02,21.10
2008,07,24,15,03,21.10
2008,07,24,15,04,21.10
2008,07,24,15,05,21.10
2008,07,24,15,06,21.20
2008,07,24,15,07,21.20
2008,07,24,15,08,21.30
2008,07,24,15,09,21.30
2008,07,24,15,10,21.30
2008,07,24,15,11,21.50
2008,07,24,15,12,21.60
2008,07,24,15,13,21.60
2008,07,24,15,14,21.50
2008,07,24,15,15,21.30
2008,07,24,15,16,21.20
2008,07,24,15,17,21.00
2008,07,24,15,18,20.90
2008,07,24,15,19,20.80
2008,07,24,15,20,20.80
2008,07,24,15,21,20.70
2008,07,24,15,22,20.60
2008,07,24,15,23,20.60
2008,07,24,15,24,20.50
2008,07,24,15,25,20.60
2008,07,24,15,26,20.60
2008,07,24,15,27,20.70
2008,07,24,15,28,20.80
2008,07,24,15,29,20.90
2008,07,24,15,30,21.00
2008,07,24,15,31,21.10
2008,07,24,15,32,21.20
2008,07,24,15,33,21.20
2008,07,24,15,34,21.20
2008,07,24,15,35,21.10
2008,07,24,15,36,21.00
2008,07,24,15,37,21.00
2008,07,24,15,38,20.90
2008,07,24,15,39,20.90
2008,07,24,15,40,20.90
2008,07,24,15,41,20.90
2008,07,24,15,42,20.90
2008,07,24,15,43,21.00
2008,07,24,15,44,21.10
2008,07,24,15,45,21.10
2008,07,24,15,46,21.00
2008,07,24,15,47,21.00
2008,07,24,15,48,21.10
2008,07,24,15,49,21.10
2008,07,24,15,50,21.20
2008,07,24,15,51,21.30
2008,07,24,15,52,21.40
2008,07,24,15,53,21.40
2008,07,24,15,54,21.30
2008,07,24,15,55,21.40
2008,07,24,15,56,21.40
2008,07,24,15,57,21.60
2008,07,24,15,58,21.60
2008,07,24,15,59,21.60
2008,07,24,16,00,21.60
2008,07,24,16,01,21.60
2008,07,24,16,02,21.60
2008,07,24,16,03,21.60
2008,07,24,16,04,21.60
2008,07,24,16,05,21.60
2008,07,24,16,06,21.60
2008,07,24,16,07,21.60
2008,07,24,16,08,21.60
2008,07,24,16,09,21.60
2008,07,24,16,10,21.60
2008,07,24,16,11,21.60
2008,07,24,16,12,21.60
2008,07,24,16,13,21.60
2008,07,24,16,14,21.50
2008,07,24,16,15,21.40
2008,07,24,16,16,21.40
2008,07,24,16,17,21.40
2008,07,24,16,18,21.40
2008,07,24,16,19,21.40
2008,07,24,16,20,21.50
2008,07,24,16,21,21.60
2008,07,24,16,22,21.70
2008,07,24,16,23,21.90
2008,07,24,16,24,22.00
2008,07,24,16,25,22.10
2008,07,24,16,26,22.20
2008,07,24,16,27,22.20
2008,07,24,16,28,22.30
2008,07,24,16,29,22.40
2008,07,24,16,30,22.50
2008,07,24,16,31,22.50
2008,07,24,16,32,22.60
2008,07,24,16,33,22.60
2008,07,24,16,34,22.70
2008,07,24,16,35,22.60
2008,07,24,16,36,22.60
2008,07,24,16,37,22.70
2008,07,24,16,38,22.70
2008,07,24,16,39,22.70
2008,07,24,16,40,22.60
2008,07,24,16,41,22.60
2008,07,24,16,42,22.50
2008,07,24,16,43,22.40
2008,07,24,16,44,22.30
2008,07,24,16,45,22.20
2008,07,24,16,46,22.10
2008,07,24,16,47,22.20
2008,07,24,16,48,22.20
2008,07,24,16,49,22.10
2008,07,24,16,50,22.10
2008,07,24,16,51,22.10
2008,07,24,16,52,22.10
2008,07,24,16,53,22.00
2008,07,24,16,54,22.00
2008,07,24,16,55,22.00
2008,07,24,16,56,22.00
2008,07,24,16,57,21.90
2008,07,24,16,58,21.90
2008,07,24,16,59,21.90
2008,07,24,17,00,21.70
2008,07,24,17,01,21.60
2008,07,24,17,02,21.60
2008,07,24,17,03,21.60
2008,07,24,17,04,21.60
2008,07,24,17,05,21.60
2008,07,24,17,06,21.60
2008,07,24,17,07,21.50
2008,07,24,17,08,21.40
2008,07,24,17,09,21.30
2008,07,24,17,10,21.30
2008,07,24,17,11,21.30
2008,07,24,17,12,21.20
2008,07,24,17,13,21.20
2008,07,24,17,14,21.20
2008,07,24,17,15,21.30
2008,07,24,17,16,21.30
2008,07,24,17,17,21.40
2008,07,24,17,18,21.50
2008,07,24,17,19,21.60
2008,07,24,17,20,21.70
2008,07,24,17,21,21.90
2008,07,24,17,22,22.10
2008,07,24,17,23,22.20
2008,07,24,17,24,22.20
2008,07,24,17,25,22.10
2008,07,24,17,26,21.90
2008,07,24,17,27,21.80